Tracking 20382 objects as of 24-Feb-2020
HD Live streaming from Space Station
objects crossing your sky now
Track the group of recently launched Starlink satellites

COSMOS 1344

Track COSMOS 1344 now!
10-day predictions
COSMOS 1344 is classified as:


NORAD ID: 13110
Int'l Code: 1982-024A
Perigee: 972.3 km
Apogee: 1,012.5 km
Inclination: 82.9 °
Period: 104.8 minutes
Semi major axis: 7363 km
RCS: 2.1071 m2 (large)
Launch date: March 24, 1982
Source: Commonwealth of Independent States (former USSR) (CIS)
Launch site: PLESETSK MISSILE AND SPACE COMPLEX (PKMTR)
aabbcc
Your satellite tracking list
Your tracking list is empty




NASA's NSSDC Master Catalog

Two Line Element Set (TLE):
1 13110U 82024A   20055.34842847  .00000037  00000-0  23316-4 0  9993
2 13110  82.9261 328.1117 0027332 283.3596 216.3306 13.73999499901220
Source of the keplerian elements: AFSPC